FENGYUN 1C DEB, 38493

Orbit data source: Space-Track

FENGYUN 1C DEB, 38493 is space debris in SSO originally from a launch on Mon, 10 May 1999 UTC launched from the Taiyaun Space Center, China (TSC). Fengyun 1C debris stems from the Chinese weather satellite Fengyun-1C, which was intentionally destroyed by a Chinese anti-satellite missile in 2007. This event dramatically increased the amount of space debris, with thousands of trackable fragments posing hazards to satellites and human spaceflight. The Fengyun 1C debris cloud has become a focal point in discussions about space sustainability and the need for international regulations to prevent the creation of new debris.

Loading next visibility...
Identifier
38493, 1999-025ESC
Orbit
SSO
Country
Flag of CNCN / PRC
Related business
Manufacturer
Unknown
Mission
Spacecraft
Bus & Motor
Unknown
Mass
Unknown
Launch date (UTC)
1999-05-10 (27 years ago)
Launch vehicle
Unknown
Launch site
Taiyaun Space Center, China (TSC)
Object type
Payload
Rocket body
Debris
Shape & HBR
Unknown shape, 0.1 m
Radar Cross Section
Small (<0.1 m²)

Expand to show TLE details & history
Last TLE update: 1 month ago

TLE from 1 month ago
0 FENGYUN 1C DEB
1 38493U 99025ESC 26215.56420126  .00000484  00000-0  36536-3 0  9996
2 38493  99.1055 165.0942 0426920 358.6682   1.3294 13.62561946596828
Epoch: 2026-08-03T13:32Z
TLE epoch observation values (Epoch: 2026-08-03T13:32:26.988Z)
Latitude
-0.00005°
Longitude
9.83626°
Altitude
713.144 km
Speed
7.657 km/s
True Right ascension
11h 00m 22s
True Declination
0° 00' 00"
Sunlit
Object was in daylight at epoch
Visualization orbit readout
Latitude
Unknown
Longitude
Unknown
Altitude
Unknown
Speed
Unknown
Apparent Right ascension
Unknown
Apparent Declination
Unknown
Sunlit
N/A
Visualization observer readout
Local Sidereal Time
07:41:05
Azimuth
Unknown
Elevation
Unknown
Doppler factor
Unknown
Orbital elements
Apogee altitude
1,339.64 km
Perigee altitude
707.646 km
Semi-major axis
7,401.78 km
Eccentricity
0.04269
Inclination
99.1055°
RAAN
165.0942°
Arg. of periapsis
358.6682°
True anomaly
1.44928°
Mean anomaly
1.3294°
Eccentric anomaly
1.38868°
Mean motion
3.40831 °/min
Orbital period
105.62 mins
BSTAR
0.00036536
Loading maneuver chart data...
Computing Atmospheric mass density...
Loading historical data...
Loading historical data...
Loading historical data...
Loading historical data...
Loading historical data...
Loading historical data...
Loading historical data...

Documentation

Showing up to 5 results
|